Location: Campillo
(40.8621°N, 4.2488°W)
Time: 12:54:53
(UTC+00:00)

USA 307 - Pass Details

Date: 11 May 2021
Orbit: 566 x 577 km, 54.0° (Epoch: 10 May)

Event Time Altitude Azimuth Distance (km) Brightness Sun altitude
Rises 22:46:54 0° 308° (NW) 2,778 7.3 -27.7°
Reaches altitude 10° 22:49:10 10° 306° (NW) 1,879 6.2 -27.9°
Enters shadow 22:51:43 35° 296° (WNW) 942 4.3 -28.0°
